Location: Blankensee
(53.5126°N, 14.3055°E)
Time: 18:52:25
(UTC+00:00)

Cosmos 1777 Rocket - Pass Details

Date: 08 August 2020
Orbit: 758 x 776 km, 74.0° (Epoch: 20 September)

Event Time Altitude Azimuth Distance (km) Brightness Sun altitude
Exits shadow 00:12:13 32° 164° (SSE) 1,315 4.7 -19.1°
Maximum altitude 00:14:20 51° 108° (ESE) 975 4.5 -19.0°
Drops below altitude 10° 00:19:27 10° 34° (NE) 2,336 7.6 -18.8°
Sets 00:21:54 0° 29° (NNE) 3,269 8.8 -18.7°
